Location: Castelbiague
(43.0361°N, 0.9246°E)
Time: 10:38:22
(UTC+00:00)

Cosmos 1980 Rocket - Pass Details

Date: 17 June 2021
Orbit: 830 x 848 km, 71.0° (Epoch: 27 July)

Event Time Altitude Azimuth Distance (km) Brightness Sun altitude
Rises 20:00:42 0° 220° (SW) 3,380 5.4 -4.2°
Reaches altitude 10° 20:03:14 10° 226° (SW) 2,447 4.7 -4.5°
Maximum altitude 20:08:38 48° 300° (WNW) 1,090 3.5 -5.3°
Drops below altitude 10° 20:14:03 10° 15° (NNE) 2,451 5.0 -6.1°
Sets 20:16:36 0° 21° (NNE) 3,386 5.6 -6.4°
